Volver al catálogo

STARLINK-31374

ActivoComunicacionesVLEO
NORAD 59404·PAYLOAD·🇺🇸 United States

Lanzado Apr 5, 2024 desde Cape Canaveral Space Force Station

Loading…

Próximos Pases (próximas 24 horas)

TLE

ActualizadoSource: CelesTrak SupGP

Época: Sep 15, 2026, 03:32 UTC

1 59404C 24064G   26258.14770833  .00025445  00000+0  92156-3 0  2587
2 59404  43.0013  15.1532 0001410 263.2865 104.8021 15.27567689    13

Sigue STARLINK-31374 en tiempo real con AllMySat

Download on the App Store